Home   Weather   Glasgow   Past weeks
Flag for United Kingdom

Past Weather in Glasgow, Scotland, United Kingdom — Yesterday and Last 2 Weeks

Now
55 °F

Partly sunny.


Feels Like: 52 °F
Forecast: N/A
Wind: 15 mph from Southwest

Location: Glasgow Airport

Current Time: Mar 21, 2019 at 2:39:21 pm

Latest Report: Mar 21, 2019 at 1:50 pm


Visibility: N/A

Pressure: 30.39 "Hg

Humidity: 88%

Dew Point: 52 °F

Location of GlasgowLocation

Past Weather in Glasgow — Graph

°F

Glasgow Temperature Yesterday

Maximum temperature yesterday: 55 °F (at 3:20 pm)
Minimum temperature yesterday: 48 °F (at 1:20 am)
Average temperature yesterday: 51 °F

High & Low Weather Summary for the Past Weeks

 TemperatureHumidityPressure
High55 °F (Mar 20, 3:20 pm)100% (Mar 6, 1:50 pm)30.39 "Hg (Mar 6, 1:50 pm)
Low27 °F (Mar 8, 4:20 am)57% (Mar 15, 1:50 pm)28.82 "Hg (Mar 6, 4:50 pm)
Average43 °F86%29.61 "Hg
* Reported Mar 6 1:20 pm — Mar 21 1:20 pm, Glasgow. Weather by CustomWeather, © 2019

Note: Actual official high and low records may vary slightly from our data, if they occured in-between our weather recording intervals... More about our weather records

Advertising

Glasgow Weather History for the Previous 24 Hours

Scroll right to see more
 ConditionsComfort  
Time TempWeatherWind HumidityBarometerVisibility
1:20 pm
Thu, Mar 21
54 °FPartly sunny.14 mph94%30.39 "HgN/A
12:50 pm54 °FMostly cloudy.15 mph94%30.39 "HgN/A
11:50 am52 °FFog.13 mph100%30.39 "Hg3 mi
11:20 am52 °FMostly cloudy.14 mph100%30.39 "HgN/A
10:50 am52 °FMostly cloudy.14 mph94%30.39 "HgN/A
10:20 am52 °FFog.15 mph94%30.39 "Hg3 mi
9:50 am52 °FLight rain. Cloudy.20 mph94%30.36 "Hg2 mi
9:20 am52 °FLight rain. Mostly cloudy.20 mph94%30.36 "Hg1 mi
8:50 am50 °FDrizzle. More clouds than sun.18 mph100%30.36 "Hg2 mi
8:20 am50 °FDrizzle. Mostly cloudy.20 mph100%30.36 "Hg2 mi
7:50 am50 °FLight rain. Mostly cloudy.21 mph100%30.33 "Hg4 mi
7:20 am50 °FLight rain. Mostly cloudy.23 mph94%30.33 "Hg4 mi
6:50 am50 °FMostly cloudy.23 mph94%30.30 "Hg5 mi
6:20 am50 °FMostly cloudy.24 mph94%30.30 "HgN/A
5:50 am50 °FPartly cloudy.25 mph94%30.27 "HgN/A
5:20 am50 °FPassing clouds.24 mph94%30.27 "HgN/A
4:50 am50 °FMostly cloudy.23 mph94%30.27 "HgN/A
4:20 am52 °FPassing clouds.16 mph88%30.27 "HgN/A
3:50 am52 °FPassing clouds.9 mph88%30.27 "HgN/A
3:20 am52 °FPassing clouds.15 mph88%30.27 "HgN/A
2:50 am52 °FMostly cloudy.17 mph94%30.27 "Hg4 mi
2:20 am52 °FOvercast.18 mph88%30.27 "HgN/A
1:50 am50 °FMostly cloudy.17 mph94%30.27 "HgN/A
1:20 am52 °FMostly cloudy.18 mph94%30.27 "Hg6 mi
12:50 am52 °FMostly cloudy.15 mph94%30.27 "HgN/A
12:20 am52 °FMostly cloudy.16 mph94%30.27 "HgN/A
11:50 pm
Wed, Mar 20
52 °FMostly cloudy.12 mph94%30.27 "Hg5 mi
11:20 pm50 °FPartly cloudy.7 mph100%30.27 "HgN/A
10:50 pm52 °FPassing clouds.15 mph94%30.27 "HgN/A
10:20 pm50 °FPassing clouds.15 mph100%30.27 "HgN/A
9:50 pm50 °FPassing clouds.17 mph100%30.27 "HgN/A
9:20 pm52 °FLight rain. Low clouds.14 mph94%30.27 "Hg5 mi
8:50 pm52 °FLight rain. Low clouds.17 mph100%30.27 "HgN/A
8:20 pm52 °FLight rain. Partly cloudy.14 mph94%30.24 "HgN/A
7:50 pm52 °FPartly cloudy.14 mph94%30.24 "Hg3 mi
7:20 pm54 °FPassing clouds.15 mph88%30.24 "HgN/A
6:50 pm54 °FPartly cloudy.16 mph88%30.24 "Hg4 mi
6:20 pm54 °FMostly cloudy.17 mph88%30.24 "HgN/A
5:50 pm54 °FBroken clouds.18 mph88%30.24 "HgN/A
5:20 pm54 °FBroken clouds.16 mph88%30.24 "HgN/A
4:50 pm54 °FBroken clouds.17 mph88%30.24 "HgN/A
4:20 pm54 °FMostly cloudy.18 mph88%30.24 "HgN/A
3:50 pm55 °FMostly cloudy.15 mph88%30.27 "HgN/A
3:20 pm55 °FMostly cloudy.20 mph88%30.27 "HgN/A
2:50 pm54 °FOvercast.18 mph88%30.27 "HgN/A
2:20 pm54 °FPartly sunny.18 mph88%30.27 "HgN/A
Weather by CustomWeather, © 2019

See weather overview